CW0925 Weather Reports


Display with metric or nautical units.
time (UTC)temp
F
wind
direction
speed
MPH
gust
MPH
rain 1hr
in
rain 24hr
in
rain mn
in
humidity
%
barometer
mb
20220818163353 89 198 7.0 10.0 0.00 0.00 0.00 72 1017.5
20220818162326 90 168 4.0 9.0 0.00 0.00 0.00 71 1017.5
20220818161417 89 189 4.0 7.0 0.00 0.00 0.00 73 1017.6
20220818160338 89 179 3.0 8.0 0.00 0.00 0.00 72 1017.6
20220818155354 89 195 5.0 10.0 0.00 0.00 0.00 74 1017.4
20220818154403 90 180 5.0 10.0 0.00 0.00 0.00 72 1017.6
20220818154321 90 180 5.0 10.0 0.00 0.00 0.00 72 1017.6
20220818153331 89 186 4.0 10.0 0.00 0.00 0.00 73 1017.5
20220818152324 89 193 6.0 10.0 0.00 0.00 0.00 72 1017.5
20220818151334 89 193 5.0 10.0 0.00 0.00 0.00 73 1017.5
20220818150356 88 187 4.0 8.0 0.00 0.00 0.00 73 1017.5
20220818145328 88 182 4.0 9.0 0.00 0.00 0.00 73 1017.7
20220818144359 88 188 5.0 9.0 0.00 0.00 0.00 73 1017.7
20220818143335 88 186 4.0 7.0 0.00 0.00 0.00 72 1017.7
20220818142343 89 187 5.0 6.0 0.00 0.00 0.00 70 1017.6
20220818141413 89 228 4.0 7.0 0.00 0.00 0.00 73 1017.5
20220818140415 88 230 3.0 7.0 0.00 0.00 0.00 73 1017.4
20220818135348 87 213 2.0 6.0 0.00 0.00 0.00 76 1017.3
20220818134317 87 189 4.0 5.0 0.00 0.00 0.00 75 1017.3
20220818133353 87 197 3.0 5.0 0.00 0.00 0.00 76 1017.3
20220818132320 87 197 5.0 6.0 0.00 0.00 0.00 76 1017.3
20220818131331 87 222 2.0 5.0 0.00 0.00 0.00 76 1017.1
20220818130353 87 227 2.0 4.0 0.00 0.00 0.00 76 1016.9
20220818125348 86 227 3.0 6.0 0.00 0.00 0.00 75 1016.9
20220818124318 86 227 0.0 4.0 0.00 0.00 0.00 76 1016.8
20220818123415 86 227 1.0 7.0 0.00 0.00 0.00 74 1016.7
20220818122403 86 252 2.0 4.0 0.00 0.00 0.00 75 1016.6
20220818121412 85 253 1.0 4.0 0.00 0.00 0.00 76 1016.7
20220818120335 85 253 1.0 6.0 0.00 0.00 0.00 78 1016.6
20220818115351 84 253 1.0 4.0 0.00 0.00 0.00 79 1016.5
20220818114325 83 253 1.0 4.0 0.00 0.00 0.00 81 1016.5
20220818113336 83 253 1.0 3.0 0.00 0.00 0.00 81 1016.4
20220818112328 83 253 1.0 4.0 0.00 0.00 0.00 81 1016.4
20220818111339 83 253 0.0 4.0 0.00 0.00 0.00 81 1016.4
20220818110340 83 253 1.0 4.0 0.00 0.00 0.00 81 1016.4
20220818105400 83 253 1.0 3.0 0.00 0.00 0.00 80 1016.4
20220818105318 83 253 1.0 3.0 0.00 0.00 0.00 80 1016.4
20220818104409 82 253 1.0 3.0 0.00 0.00 0.00 80 1016.4
20220818104326 82 253 1.0 3.0 0.00 0.00 0.00 80 1016.4
20220818103336 82 253 0.0 3.0 0.00 0.00 0.00 79 1016.3
20220818102323 82 253 1.0 2.0 0.00 0.00 0.00 80 1016.2
20220818101334 82 253 1.0 3.0 0.00 0.00 0.00 80 1016.2
20220818100418 83 253 0.0 2.0 0.00 0.00 0.00 79 1016.2
20220818095335 83 253 1.0 3.0 0.00 0.00 0.00 77 1016.2
20220818094345 83 253 0.0 3.0 0.00 0.00 0.00 77 1016.2
20220818093356 83 253 3.0 4.0 0.00 0.00 0.00 78 1016.2
20220818092345 83 253 0.0 2.0 0.00 0.00 0.00 78 1016.1
20220818091335 83 253 1.0 2.0 0.00 0.00 0.00 78 1016.0
20220818090359 83 253 0.0 3.0 0.00 0.00 0.00 79 1016.0
20220818085419 83 253 1.0 4.0 0.00 0.00 0.00 79 1016.0
20220818084346 83 253 0.0 3.0 0.00 0.00 0.00 81 1016.2
20220818083357 83 253 1.0 4.0 0.00 0.00 0.00 82 1016.3
20220818082346 83 253 2.0 4.0 0.00 0.00 0.00 82 1016.4
20220818081416 83 253 0.0 3.0 0.00 0.00 0.00 82 1016.3
20220818080417 83 252 1.0 2.0 0.00 0.00 0.00 82 1016.3
20220818075331 83 253 0.0 0.0 0.00 0.00 0.00 81 1016.4
20220818074405 83 253 1.0 3.0 0.00 0.00 0.00 82 1016.3
20220818073417 82 253 1.0 2.0 0.00 0.00 0.00 81 1016.3
20220818072406 83 253 0.0 2.0 0.00 0.00 0.00 81 1016.3
20220818071355 83 253 0.0 1.0 0.00 0.00 0.00 81 1016.3
20220818070356 83 253 0.0 1.0 0.00 0.00 0.00 81 1016.5
20220818065412 83 253 1.0 3.0 0.00 0.00 0.00 79 1016.7
20220818065330 83 253 1.0 3.0 0.00 0.00 0.00 79 1016.7
20220818064325 83 253 0.0 1.0 0.00 0.00 0.00 79 1016.7
20220818063357 83 253 0.0 1.0 0.00 0.00 0.00 80 1016.8
20220818062346 83 253 0.0 0.0 0.00 0.00 0.00 79 1016.9
20220818061336 83 253 0.0 1.0 0.00 0.00 0.00 78 1016.9
20220818060358 84 253 0.0 2.0 0.00 0.00 0.00 80 1017.1
20220818055337 84 253 1.0 2.0 0.00 0.00 0.00 78 1017.4
20220818054408 84 253 1.0 4.0 0.00 0.00 0.00 79 1017.4
20220818053338 84 253 2.0 4.0 0.00 0.00 0.00 79 1017.6
20220818052328 84 253 2.0 4.0 0.00 0.00 0.00 80 1017.6
20220818051400 85 253 2.0 6.0 0.00 0.00 0.00 79 1017.7
20220818050338 85 268 2.0 7.0 0.00 0.00 0.00 78 1017.9
20220818045317 85 268 4.0 7.0 0.00 0.00 0.00 78 1018.0
20220818044408 85 269 3.0 7.0 0.00 0.00 0.00 78 1018.2
20220818043335 85 268 4.0 7.0 0.00 0.00 0.00 78 1018.1
20220818042345 85 268 5.0 8.0 0.00 0.00 0.00 77 1018.0
20220818041416 85 268 5.0 8.0 0.00 0.00 0.00 75 1018.1
20220818040356 85 268 7.0 9.0 0.00 0.00 0.00 75 1018.3
20220818035350 85 268 6.0 8.0 0.00 0.00 0.00 76 1018.1
20220818034343 85 272 7.0 9.0 0.00 0.00 0.00 76 1018.3
20220818033333 85 280 6.0 9.0 0.00 0.00 0.00 76 1018.2
20220818032405 85 281 6.0 9.0 0.00 0.00 0.00 76 1018.0
20220818032322 85 281 6.0 9.0 0.00 0.00 0.00 76 1018.0
20220818031333 85 274 6.0 9.0 0.00 0.00 0.00 75 1018.1
20220818030334 85 278 5.0 8.0 0.00 0.00 0.00 77 1017.9
20220818025334 85 279 5.0 8.0 0.00 0.00 0.00 77 1017.7
20220818024345 85 274 5.0 9.0 0.00 0.00 0.00 77 1017.6
20220818023356 85 274 7.0 10.0 0.00 0.00 0.00 77 1017.6
20220818022343 85 295 3.0 6.0 0.00 0.00 0.00 77 1017.7
20220818021414 85 295 6.0 8.0 0.00 0.00 0.00 77 1017.5
20220818020334 85 280 3.0 5.0 0.00 0.00 0.00 76 1017.5
20220818015415 85 280 4.0 7.0 0.00 0.00 0.00 76 1017.5
20220818014404 85 280 5.0 10.0 0.00 0.00 0.00 77 1017.6
20220818014321 85 280 5.0 10.0 0.00 0.00 0.00 77 1017.6
20220818013352 85 280 7.0 10.0 0.00 0.00 0.00 77 1017.5
20220818012341 85 265 5.0 8.0 0.00 0.00 0.00 76 1017.4
20220818011411 85 265 3.0 7.0 0.00 0.00 0.00 76 1017.5
20220818010414 85 265 2.0 7.0 0.00 0.00 0.00 76 1017.6
20220818010332 85 265 2.0 7.0 0.00 0.00 0.00 76 1017.6
20220818005324 86 265 4.0 7.0 0.00 0.00 0.00 76 1017.6
20220818004416 86 265 4.0 8.0 0.00 0.00 0.00 75 1017.5
20220818003346 86 272 7.0 8.0 0.00 0.00 0.00 74 1017.5
20220818002339 86 276 8.0 9.0 0.00 0.00 0.00 74 1017.3
20220818001328 86 278 7.0 10.0 0.00 0.00 0.00 74 1017.3
20220818000411 86 288 6.0 11.0 0.00 0.00 0.00 73 1017.4
20220817235346 86 279 7.0 14.0 0.00 0.00 0.00 74 1017.3
20220817234332 86 274 8.0 10.0 0.00 0.00 0.00 75 1017.3
20220817233326 86 280 10.0 12.0 0.00 0.00 0.00 76 1017.2
20220817232317 86 276 10.0 15.0 0.00 0.00 0.00 75 1017.2
20220817231407 87 292 9.0 18.0 0.00 0.00 0.00 76 1016.9
20220817230429 87 277 11.0 13.0 0.00 0.00 0.00 73 1016.9
20220817230346 87 277 11.0 13.0 0.00 0.00 0.00 73 1016.9
20220817225320 87 263 9.0 14.0 0.00 0.00 0.00 73 1016.7
20220817224330 87 269 11.0 15.0 0.00 0.00 0.00 72 1016.7
20220817223342 87 284 10.0 14.0 0.00 0.00 0.00 71 1016.7
20220817222416 87 292 11.0 16.0 0.00 0.00 0.00 72 1016.8
20220817221323 87 270 13.0 17.0 0.00 0.00 0.00 67 1016.8
20220817220426 87 278 16.0 18.0 0.00 0.00 0.00 69 1016.9
20220817220343 87 278 16.0 18.0 0.00 0.00 0.00 69 1016.9
20220817215338 88 276 15.0 19.0 0.00 0.00 0.00 72 1016.8
20220817214348 88 284 13.0 16.0 0.00 0.00 0.00 73 1016.8
20220817213339 88 270 11.0 16.0 0.00 0.00 0.00 74 1016.8
20220817212348 88 276 13.0 17.0 0.00 0.00 0.00 73 1017.0
20220817211402 88 294 14.0 18.0 0.00 0.00 0.00 72 1016.9
20220817210343 88 290 12.0 19.0 0.00 0.00 0.00 71 1016.9
20220817205359 88 274 15.0 19.0 0.00 0.00 0.00 70 1016.9
20220817204409 88 305 12.0 19.0 0.00 0.00 0.00 72 1016.8
20220817203336 88 281 15.0 19.0 0.00 0.00 0.00 70 1016.8
20220817202405 88 272 13.0 17.0 0.00 0.00 0.00 71 1016.8
20220817201338 88 286 13.0 18.0 0.00 0.00 0.00 73 1017.0
20220817200340 89 278 14.0 18.0 0.00 0.00 0.00 72 1017.0
20220817195415 88 276 14.0 17.0 0.00 0.00 0.00 70 1017.0
20220817195333 88 276 14.0 17.0 0.00 0.00 0.00 70 1017.0
20220817194323 89 270 11.0 15.0 0.00 0.00 0.00 72 1017.0
20220817193335 88 251 10.0 20.0 0.00 0.00 0.00 70 1017.2
20220817192324 90 257 12.0 18.0 0.00 0.00 0.00 73 1017.3
20220817191317 89 288 15.0 19.0 0.00 0.00 0.00 71 1017.2
20220817190401 89 258 12.0 20.0 0.00 0.00 0.00 71 1017.3
20220817185416 90 259 11.0 14.0 0.00 0.00 0.00 69 1017.5
20220817184323 90 256 9.0 14.0 0.00 0.00 0.00 69 1017.5
20220817183334 90 211 7.0 10.0 0.00 0.00 0.00 74 1017.5
20220817182327 89 224 5.0 10.0 0.00 0.00 0.00 74 1017.6
20220817181336 89 161 3.0 11.0 0.00 0.00 0.00 73 1017.7
20220817180358 90 186 4.0 11.0 0.00 0.00 0.00 72 1017.9
20220817175353 90 209 7.0 12.0 0.00 0.00 0.00 73 1017.9
20220817174403 90 207 6.0 11.0 0.00 0.00 0.00 72 1017.9
20220817174320 90 207 6.0 11.0 0.00 0.00 0.00 72 1017.9
20220817173332 89 215 4.0 11.0 0.00 0.00 0.00 72 1018.0
20220817172404 89 180 4.0 13.0 0.00 0.00 0.00 73 1017.9
20220817172322 89 180 4.0 13.0 0.00 0.00 0.00 73 1017.9
20220817171337 89 177 4.0 11.0 0.00 0.00 0.00 74 1017.9
20220817170421 90 177 5.0 10.0 0.00 0.00 0.00 74 1017.9
20220817170338 90 177 5.0 10.0 0.00 0.00 0.00 74 1017.9
20220817165332 89 238 4.0 9.0 0.00 0.00 0.00 72 1018.1
20220817164402 89 166 3.0 12.0 0.00 0.00 0.00 74 1018.1
20220817164320 89 166 3.0 12.0 0.00 0.00 0.00 74 1018.1